CEB858 RPMZ-RPLL

Flight info

Callsign CEB858
Flight time N/A
Altitude 36000
Route BURCO1W BURCO W3 IOO B472 IBAGO IBAGO7R
Aircraft A20N/M-SDE2E3FGHIJ1RWXY/LB1

Departure

Time 2026-04-25 09:44
Airport Zamboanga International Airport (RPMZ)

Arrival

Time N/A
Airport Ninoy Aquino International Airport (RPLL)
Time Latitude Longitude Altitude Speed Heading
2026-04-25 09:25 6.92048 122.06240 66 ft 0 kts 155°
2026-04-25 09:35 6.92045 122.06242 66 ft 0 kts 137°
2026-04-25 09:36 6.92045 122.06245 66 ft 0 kts 81°
2026-04-25 09:36 6.92059 122.06245 66 ft 4 kts 335°
2026-04-25 09:36 6.92105 122.06218 66 ft 5 kts 306°
2026-04-25 09:36 6.92111 122.06187 66 ft 8 kts 274°
2026-04-25 09:37 6.92117 122.06092 66 ft 8 kts 279°
2026-04-25 09:37 6.92134 122.06059 66 ft 7 kts 314°
2026-04-25 09:37 6.92185 122.06015 66 ft 7 kts 320°
2026-04-25 09:37 6.92224 122.06010 66 ft 5 kts 30°
2026-04-25 09:38 6.92236 122.06058 66 ft 9 kts 93°
2026-04-25 09:38 6.92232 122.06137 66 ft 13 kts 94°
2026-04-25 09:38 6.92224 122.06241 66 ft 16 kts 94°
2026-04-25 09:38 6.92216 122.06361 66 ft 18 kts 94°
2026-04-25 09:39 6.92207 122.06501 66 ft 20 kts 94°
2026-04-25 09:39 6.92197 122.06661 65 ft 14 kts 94°
2026-04-25 09:39 6.92190 122.06760 65 ft 14 kts 93°
2026-04-25 09:40 6.92181 122.06900 65 ft 4 kts 93°
2026-04-25 09:40 6.92185 122.06932 65 ft 5 kts 80°
2026-04-25 09:40 6.92187 122.06972 65 ft 6 kts 94°
2026-04-25 09:40 6.92184 122.07019 65 ft 7 kts 94°
2026-04-25 09:41 6.92179 122.07085 65 ft 2 kts 100°
2026-04-25 09:41 6.92172 122.07098 65 ft 3 kts 125°
2026-04-25 09:41 6.92159 122.07117 65 ft 2 kts 124°
2026-04-25 09:41 6.92159 122.07124 65 ft 0 kts 45°
2026-04-25 09:42 6.92167 122.07113 65 ft 4 kts 278°
2026-04-25 09:42 6.92168 122.07106 65 ft 0 kts 274°
2026-04-25 09:43 6.92169 122.07095 65 ft 10 kts 274°
2026-04-25 09:43 6.92190 122.06765 65 ft 85 kts 273°
2026-04-25 09:43 6.92245 122.05926 67 ft 149 kts 274°
2026-04-25 09:44 6.92326 122.04785 379 ft 170 kts 273°
2026-04-25 09:44 6.92418 122.03580 971 ft 173 kts 274°
2026-04-25 09:44 6.92533 122.01979 1796 ft 173 kts 274°
2026-04-25 09:44 6.92620 122.00726 2146 ft 186 kts 275°
2026-04-25 09:45 6.92682 121.99836 2326 ft 199 kts 274°
2026-04-25 09:45 6.92817 121.97870 2770 ft 222 kts 274°
2026-04-25 09:45 6.92889 121.96815 2933 ft 238 kts 275°
2026-04-25 09:45 6.93008 121.95068 3320 ft 257 kts 275°
2026-04-25 09:46 6.93716 121.92724 3878 ft 276 kts 311°
2026-04-25 09:46 6.94684 121.91885 4325 ft 275 kts 334°
2026-04-25 09:46 6.97046 121.90979 5303 ft 277 kts 344°
2026-04-25 09:46 6.98261 121.90551 5782 ft 280 kts 344°
2026-04-25 09:47 7.00112 121.89880 6518 ft 285 kts 343°
2026-04-25 09:47 7.01984 121.89187 7244 ft 288 kts 343°
2026-04-25 09:47 7.04535 121.88229 8232 ft 291 kts 342°
2026-04-25 09:47 7.05816 121.87745 8714 ft 293 kts 342°
2026-04-25 09:48 7.07735 121.87175 9377 ft 292 kts 357°
2026-04-25 09:48 7.09739 121.87428 10083 ft 288 kts 23°
2026-04-25 09:48 7.11934 121.88944 10720 ft 296 kts 45°
2026-04-25 09:48 7.12926 121.89913 10917 ft 307 kts 45°
2026-04-25 09:49 7.14508 121.91469 11202 ft 323 kts 45°
2026-04-25 09:49 7.16158 121.93073 11460 ft 338 kts 45°
2026-04-25 09:49 7.18510 121.95338 11833 ft 357 kts 44°
2026-04-25 09:49 7.20315 121.97060 12325 ft 362 kts 44°
2026-04-25 09:50 7.22153 121.98811 12875 ft 365 kts 44°
2026-04-25 09:50 7.23392 121.99990 13244 ft 367 kts 44°
2026-04-25 09:50 7.25267 122.01777 13777 ft 370 kts 44°
2026-04-25 09:50 7.27121 122.03545 14279 ft 374 kts 44°
2026-04-25 09:51 7.29022 122.05359 14779 ft 377 kts 44°
2026-04-25 09:51 7.30942 122.07191 15262 ft 380 kts 44°
2026-04-25 09:51 7.32986 122.08923 15726 ft 385 kts 34°
2026-04-25 09:51 7.35358 122.10107 16200 ft 389 kts 20°
2026-04-25 09:52 7.38018 122.10704 16659 ft 393 kts
2026-04-25 09:52 7.40745 122.11020 17100 ft 396 kts
2026-04-25 09:52 7.43524 122.11308 17535 ft 399 kts
2026-04-25 09:52 7.46317 122.11599 17990 ft 402 kts
2026-04-25 09:53 7.49107 122.11894 18461 ft 403 kts
2026-04-25 09:53 7.51888 122.12194 18890 ft 405 kts
2026-04-25 09:53 7.54730 122.12503 19305 ft 408 kts
2026-04-25 09:53 7.57560 122.12814 19725 ft 410 kts
2026-04-25 09:54 7.60414 122.13129 20137 ft 413 kts
2026-04-25 09:54 7.63302 122.13449 20553 ft 415 kts
2026-04-25 09:54 7.67160 122.13877 21094 ft 418 kts
2026-04-25 09:54 7.69074 122.14090 21358 ft 420 kts
2026-04-25 09:55 7.72005 122.14416 21753 ft 422 kts
2026-04-25 09:55 7.74938 122.14741 22144 ft 425 kts
2026-04-25 09:55 7.78889 122.15181 22666 ft 428 kts
2026-04-25 09:55 7.80881 122.15404 22926 ft 429 kts
2026-04-25 09:56 7.83835 122.15734 23304 ft 431 kts
2026-04-25 09:56 7.86833 122.16070 23674 ft 434 kts
2026-04-25 09:56 7.89855 122.16406 24039 ft 436 kts
2026-04-25 09:56 7.92892 122.16743 24411 ft 438 kts
2026-04-25 09:57 7.96934 122.17194 24879 ft 441 kts
2026-04-25 09:57 8.00029 122.17539 25217 ft 443 kts
2026-04-25 09:57 8.02066 122.17765 25433 ft 445 kts
2026-04-25 09:57 8.05164 122.18109 25764 ft 447 kts
2026-04-25 09:58 8.09298 122.18570 26195 ft 450 kts
2026-04-25 09:58 8.11406 122.18805 26403 ft 451 kts
2026-04-25 09:58 8.14524 122.19150 26709 ft 453 kts
2026-04-25 09:58 8.17681 122.19499 27011 ft 455 kts
2026-04-25 09:59 8.20891 122.19855 27312 ft 457 kts
2026-04-25 09:59 8.24038 122.20203 27598 ft 459 kts
2026-04-25 09:59 8.27237 122.20560 27865 ft 461 kts
2026-04-25 09:59 8.30439 122.20917 28115 ft 462 kts
2026-04-25 10:00 8.33623 122.21272 28345 ft 464 kts
2026-04-25 10:00 8.36846 122.21629 28578 ft 466 kts
2026-04-25 10:00 8.40085 122.21990 28809 ft 467 kts
2026-04-25 10:00 8.43369 122.22354 29022 ft 469 kts
2026-04-25 10:01 8.47698 122.22837 29368 ft 469 kts
2026-04-25 10:01 8.49837 122.23075 29540 ft 469 kts
2026-04-25 10:01 8.53121 122.23441 29790 ft 470 kts
2026-04-25 10:01 8.56377 122.23803 30035 ft 470 kts
2026-04-25 10:02 8.59629 122.24166 30276 ft 471 kts
2026-04-25 10:02 8.62889 122.24529 30519 ft 471 kts
2026-04-25 10:02 8.66144 122.24893 30755 ft 471 kts
2026-04-25 10:02 8.67262 122.25018 30834 ft 471 kts